FW0314 Weather Reports


time (UTC)temp
C
wind
direction
speed
KPH
gust
KPH
rain 1hr
cm
rain 24hr
cm
rain mn
cm
humidity
%
barometer
mb
20260505091503 11 158 0.0 4.8 0.00 0.00 0.00 88 1013.2
20260505091003 12 158 1.6 4.8 0.00 0.00 0.00 88 1013.0
20260505090524 12 158 1.6 4.8 0.00 0.00 0.00 87 1012.9
20260505090025 12 158 0.0 3.2 0.00 0.00 0.00 87 1012.9
20260505085505 12 158 0.0 4.8 0.00 0.00 0.00 87 1012.9
20260505085026 12 158 1.6 4.8 0.00 0.00 0.00 87 1012.9
20260505084526 12 158 1.6 4.8 0.00 0.00 0.00 87 1012.9
20260505084026 12 158 0.0 4.8 0.00 0.00 0.00 86 1012.9
20260505083505 12 158 1.6 4.8 0.00 0.00 0.00 86 1012.8
20260505083005 12 158 1.6 4.8 0.00 0.00 0.00 86 1012.9
20260505082505 12 158 1.6 4.8 0.00 0.00 0.00 86 1012.7
20260505082005 12 158 1.6 6.4 0.00 0.00 0.00 86 1012.7
20260505081505 12 158 1.6 6.4 0.00 0.00 0.00 85 1012.7
20260505081005 12 159 1.6 6.4 0.00 0.00 0.00 85 1012.7
20260505080505 12 159 1.6 6.4 0.00 0.00 0.00 85 1012.6
20260505080005 13 159 1.6 6.4 0.00 0.00 0.00 85 1012.7
20260505075505 13 159 1.6 6.4 0.00 0.00 0.00 84 1012.6
20260505075006 13 159 1.6 6.4 0.00 0.00 0.00 84 1012.6
20260505074531 13 159 1.6 6.4 0.00 0.00 0.00 84 1012.5
20260505074005 13 159 1.6 6.4 0.00 0.00 0.00 84 1012.5
20260505073505 13 159 0.0 6.4 0.00 0.00 0.00 83 1012.4
20260505073005 13 159 0.0 6.4 0.00 0.00 0.00 83 1012.4
20260505072505 13 159 1.6 6.4 0.00 0.00 0.00 83 1012.3
20260505072005 13 159 0.0 6.4 0.00 0.00 0.00 83 1012.3
20260505071505 13 159 1.6 6.4 0.00 0.00 0.00 82 1012.3
20260505071026 13 159 1.6 6.4 0.00 0.00 0.00 82 1012.3
20260505070505 13 168 1.6 4.8 0.00 0.00 0.00 82 1012.3
20260505070026 14 177 1.6 4.8 0.00 0.00 0.00 82 1012.3
20260505065505 14 184 1.6 4.8 0.00 0.00 0.00 82 1012.2
20260505065005 14 179 1.6 4.8 0.00 0.00 0.00 82 1012.1
20260505064505 14 27 1.6 3.2 0.00 0.00 0.00 81 1012.1
20260505064005 14 19 0.0 3.2 0.00 0.00 0.00 81 1011.9
20260505063505 14 19 0.0 1.6 0.00 0.00 0.00 80 1011.9
20260505063005 14 0 0.0 1.6 0.00 0.00 0.00 79 1011.9
20260505062505 14 19 0.0 3.2 0.00 0.00 0.00 79 1011.9
20260505062005 14 19 0.0 3.2 0.00 0.00 0.00 78 1011.8
20260505061505 14 19 0.0 3.2 0.00 0.00 0.00 78 1011.7
20260505061005 14 19 0.0 3.2 0.00 0.00 0.00 77 1011.6
20260505060526 14 19 0.0 3.2 0.00 0.00 0.00 77 1011.6
20260505060005 14 19 0.0 3.2 0.00 0.00 0.00 76 1011.5
20260505055506 14 19 0.0 3.2 0.00 0.00 0.00 76 1011.5
20260505055005 15 19 0.0 3.2 0.00 0.00 0.00 75 1011.3
20260505054505 15 19 0.0 3.2 0.00 0.00 0.00 75 1011.3
20260505054026 15 19 0.0 3.2 0.00 0.00 0.00 74 1011.4
20260505053505 15 0 0.0 0.0 0.00 0.00 0.00 74 1011.3
20260505053005 15 0 0.0 0.0 0.00 0.00 0.00 73 1011.3
20260505052505 15 0 0.0 1.6 0.00 0.00 0.00 73 1011.3
20260505052005 15 0 0.0 1.6 0.00 0.00 0.00 72 1011.3
20260505051505 15 0 0.0 1.6 0.00 0.00 0.00 72 1011.3
20260505051005 15 19 0.0 1.6 0.00 0.00 0.00 72 1011.2
20260505050526 15 19 0.0 3.2 0.00 0.00 0.00 71 1011.1
20260505041505 16 19 1.6 4.8 0.00 0.00 0.00 67 1010.7
20260505041025 16 19 0.0 4.8 0.00 0.00 0.00 67 1010.6
20260505040505 17 19 0.0 3.2 0.00 0.00 0.00 66 1010.5
20260505040025 17 19 0.0 3.2 0.00 0.00 0.00 66 1010.3
20260505035504 17 19 0.0 3.2 0.00 0.00 0.00 66 1010.4
20260505035005 17 19 0.0 3.2 0.00 0.00 0.00 65 1010.3
20260505034506 18 19 0.0 1.6 0.00 0.00 0.00 63 1010.3
20260505034005 18 19 1.6 1.6 0.00 0.00 0.00 62 1010.3
20260505033505 18 19 0.0 1.6 0.00 0.00 0.00 57 1010.1
20260505033004 19 19 0.0 1.6 0.00 0.00 0.00 54 1010.1
20260505032504 20 19 0.0 1.6 0.00 0.00 0.00 53 1010.1
20260505032025 20 0 0.0 1.6 0.00 0.00 0.00 53 1010.1
20260505031504 20 0 0.0 1.6 0.00 0.00 0.00 51 1010.0
20260505031005 20 0 0.0 4.8 0.00 0.00 0.00 50 1010.1
20260505030505 20 19 0.0 4.8 0.00 0.00 0.00 49 1009.9
20260505030005 20 19 0.0 4.8 0.00 0.00 0.00 49 1009.9
20260505025526 20 19 0.0 4.8 0.00 0.00 0.00 49 1009.8
20260505024504 21 19 0.0 3.2 0.00 0.00 0.00 48 1009.8
20260505024005 21 19 0.0 4.8 0.00 0.00 0.00 47 1009.8
20260505023526 21 19 0.0 4.8 0.00 0.00 0.00 48 1009.8
20260505023005 21 20 0.0 8.0 0.00 0.00 0.00 48 1009.9
20260505022505 21 27 1.6 8.0 0.00 0.00 0.00 47 1009.8
20260505022004 21 31 1.6 8.0 0.00 0.00 0.00 47 1009.9
20260505021505 21 37 1.6 8.0 0.00 0.00 0.00 47 1009.9
20260505021004 21 47 1.6 8.0 0.00 0.00 0.00 47 1009.9
20260505020505 21 48 3.2 8.0 0.00 0.00 0.00 47 1009.9
20260505020026 21 40 3.2 8.0 0.00 0.00 0.00 46 1009.9
20260505015526 21 34 1.6 8.0 0.00 0.00 0.00 48 1009.9
20260505015009 21 39 3.2 8.0 0.00 0.00 0.00 47 1009.9
20260505014505 21 40 3.2 11.3 0.00 0.00 0.00 47 1010.0
20260505014004 20 31 3.2 14.5 0.00 0.00 0.00 47 1010.1
20260505013505 20 29 3.2 16.1 0.00 0.00 0.00 47 1010.0
20260505013005 20 33 3.2 16.1 0.00 0.00 0.00 47 1010.0
20260505012504 20 36 4.8 16.1 0.00 0.00 0.00 47 1010.1
20260505012004 20 42 4.8 16.1 0.00 0.00 0.00 47 1010.1
20260505011504 20 42 4.8 16.1 0.00 0.00 0.00 48 1010.2
20260505011004 20 50 4.8 19.3 0.00 0.00 0.00 47 1010.2
20260505010525 20 43 4.8 19.3 0.00 0.00 0.00 48 1010.2
20260505010005 20 33 4.8 19.3 0.00 0.00 0.00 49 1010.2
20260505005505 20 35 6.4 19.3 0.00 0.00 0.00 48 1010.3
20260505005025 21 32 6.4 19.3 0.00 0.00 0.00 47 1010.3
20260505004525 21 36 4.8 16.1 0.00 0.00 0.00 47 1010.2
20260505004004 21 36 4.8 14.5 0.00 0.00 0.00 46 1010.3
20260505003504 21 27 4.8 11.3 0.00 0.00 0.00 45 1010.2
20260505003005 22 33 4.8 14.5 0.00 0.00 0.00 45 1010.2
20260505002504 22 32 4.8 14.5 0.00 0.00 0.00 45 1010.2
20260505002025 22 31 4.8 14.5 0.00 0.00 0.00 45 1010.1
20260505001504 23 43 3.2 14.5 0.00 0.00 0.00 44 1010.1
20260505001004 23 36 4.8 12.9 0.00 0.00 0.00 44 1010.1
20260505000505 23 31 4.8 11.3 0.00 0.00 0.00 44 1010.0
20260505000004 23 34 4.8 14.5 0.00 0.00 0.00 44 1009.9
20260504235504 23 35 4.8 14.5 0.00 0.00 0.00 44 1010.0
20260504235004 23 37 6.4 14.5 0.00 0.00 0.00 44 1010.0
20260504234504 24 36 6.4 14.5 0.00 0.00 0.00 42 1010.0
20260504234004 25 38 4.8 11.3 0.00 0.00 0.00 40 1010.0
20260504233525 25 37 3.2 8.0 0.00 0.00 0.00 40 1010.0
20260504233004 25 219 3.2 6.4 0.00 0.00 0.00 40 1010.0
20260504232504 26 213 1.6 6.4 0.00 0.00 0.00 39 1009.9
20260504232004 26 213 1.6 4.8 0.00 0.00 0.00 38 1010.0
20260504231504 27 213 1.6 4.8 0.00 0.00 0.00 36 1009.8
20260504231025 27 213 1.6 4.8 0.00 0.00 0.00 37 1010.0
20260504230504 27 213 1.6 4.8 0.00 0.00 0.00 37 1009.8
20260504230025 27 213 1.6 6.4 0.00 0.00 0.00 36 1009.8
20260504225504 27 213 1.6 6.4 0.00 0.00 0.00 36 1009.9
20260504225004 27 213 1.6 6.4 0.00 0.00 0.00 38 1010.1
20260504224504 27 216 1.6 9.7 0.00 0.00 0.00 37 1010.1
20260504224004 27 227 1.6 9.7 0.00 0.00 0.00 36 1010.1
20260504223504 27 244 1.6 9.7 0.00 0.00 0.00 38 1010.1
20260504223004 27 268 1.6 9.7 0.00 0.00 0.00 38 1010.1
20260504222504 26 294 1.6 9.7 0.00 0.00 0.00 40 1010.2
20260504222004 26 299 3.2 6.4 0.00 0.00 0.00 40 1010.2
20260504221504 26 303 3.2 6.4 0.00 0.00 0.00 41 1010.3
20260504221004 26 309 3.2 6.4 0.00 0.00 0.00 40 1010.5
20260504220504 25 309 3.2 6.4 0.00 0.00 0.00 41 1010.6
20260504220004 25 287 3.2 6.4 0.00 0.00 0.00 41 1010.6
20260504215504 25 218 3.2 6.4 0.00 0.00 0.00 41 1010.7
20260504215004 25 207 3.2 8.0 0.00 0.00 0.00 42 1010.7
20260504214504 25 289 3.2 8.0 0.00 0.00 0.00 41 1010.7
20260504214004 25 354 3.2 8.0 0.00 0.00 0.00 42 1010.7
20260504213504 25 51 3.2 8.0 0.00 0.00 0.00 41 1010.7
20260504213004 25 44 3.2 8.0 0.00 0.00 0.00 41 1010.8
20260504212504 25 345 3.2 9.7 0.00 0.00 0.00 42 1010.8
20260504212004 25 314 3.2 9.7 0.00 0.00 0.00 42 1010.8
20260504211525 25 302 3.2 9.7 0.00 0.00 0.00 43 1010.8
20260504211025 25 305 3.2 11.3 0.00 0.00 0.00 43 1010.9
20260504210504 25 232 3.2 11.3 0.00 0.00 0.00 44 1010.8
20260504210025 25 238 1.6 11.3 0.00 0.00 0.00 43 1010.9
20260504205525 25 248 3.2 11.3 0.00 0.00 0.00 42 1011.0
20260504205004 25 271 3.2 11.3 0.00 0.00 0.00 43 1010.9
20260504204505 25 37 1.6 6.4 0.00 0.00 0.00 44 1010.9
20260504204004 24 35 1.6 6.4 0.00 0.00 0.00 45 1011.0
20260504203525 24 35 1.6 4.8 0.00 0.00 0.00 46 1010.9
20260504203025 24 35 1.6 6.4 0.00 0.00 0.00 44 1011.0
20260504202504 24 35 1.6 6.4 0.00 0.00 0.00 47 1011.0
20260504202004 23 35 1.6 6.4 0.00 0.00 0.00 45 1011.1
20260504201504 23 35 3.2 6.4 0.00 0.00 0.00 45 1011.0
20260504201004 23 35 3.2 6.4 0.00 0.00 0.00 45 1011.2
20260504200504 23 35 3.2 6.4 0.00 0.00 0.00 45 1011.1
20260504200005 23 35 3.2 6.4 0.00 0.00 0.00 47 1011.1
20260504195504 23 35 3.2 6.4 0.00 0.00 0.00 43 1011.0
20260504195004 23 35 3.2 6.4 0.00 0.00 0.00 43 1011.1
20260504194504 23 35 3.2 4.8 0.00 0.00 0.00 45 1011.0
20260504194004 23 35 3.2 4.8 0.00 0.00 0.00 46 1010.9
20260504193504 23 35 3.2 4.8 0.00 0.00 0.00 44 1011.0
20260504193004 23 35 3.2 4.8 0.00 0.00 0.00 44 1010.9
20260504192525 23 35 3.2 4.8 0.00 0.00 0.00 44 1011.0
20260504192004 23 35 3.2 4.8 0.00 0.00 0.00 44 1011.0
20260504191504 23 35 3.2 4.8 0.00 0.00 0.00 44 1011.1
20260504191004 23 35 1.6 4.8 0.00 0.00 0.00 45 1011.2
20260504190504 22 35 1.6 4.8 0.00 0.00 0.00 46 1011.2
20260504190004 22 35 1.6 4.8 0.00 0.00 0.00 45 1011.3
20260504185525 22 35 1.6 4.8 0.00 0.00 0.00 47 1011.2
20260504185025 22 35 3.2 4.8 0.00 0.00 0.00 45 1011.4
20260504184525 22 35 3.2 4.8 0.00 0.00 0.00 46 1011.3
20260504184004 22 35 1.6 4.8 0.00 0.00 0.00 44 1011.3
20260504183504 22 35 1.6 3.2 0.00 0.00 0.00 45 1011.4
20260504183004 22 35 1.6 3.2 0.00 0.00 0.00 47 1011.4
20260504182504 21 35 1.6 3.2 0.00 0.00 0.00 45 1011.4
20260504182004 21 35 1.6 3.2 0.00 0.00 0.00 48 1011.3
20260504181504 21 35 1.6 3.2 0.00 0.00 0.00 46 1011.3
20260504181004 21 35 1.6 3.2 0.00 0.00 0.00 47 1011.3
20260504180503 21 35 1.6 3.2 0.00 0.00 0.00 48 1011.3
20260504180025 21 35 1.6 3.2 0.00 0.00 0.00 48 1011.3
20260504175504 21 35 1.6 3.2 0.00 0.00 0.00 50 1011.4
20260504175004 21 35 1.6 3.2 0.00 0.00 0.00 51 1011.2
20260504174525 21 35 1.6 6.4 0.00 0.00 0.00 52 1011.3
20260504174004 20 35 1.6 6.4 0.00 0.00 0.00 48 1011.4
20260504173503 20 35 1.6 6.4 0.00 0.00 0.00 49 1011.3
20260504173004 20 35 3.2 6.4 0.00 0.00 0.00 50 1011.4
20260504172524 20 35 3.2 8.0 0.00 0.00 0.00 51 1011.5
20260504172004 20 35 3.2 9.7 0.00 0.00 0.00 48 1011.5
20260504171525 20 35 1.6 9.7 0.00 0.00 0.00 50 1011.4
20260504171004 20 36 3.2 9.7 0.00 0.00 0.00 51 1011.4
20260504170504 20 36 3.2 9.7 0.00 0.00 0.00 51 1011.4
20260504151003 15 263 0.0 1.6 0.00 0.00 0.00 71 1010.8
20260504150503 15 263 0.0 1.6 0.00 0.00 0.00 72 1010.8
20260504141003 12 0 0.0 0.0 0.00 0.00 0.00 77 1010.5
20260504140503 12 0 0.0 0.0 0.00 0.00 0.00 76 1010.5
20260504130503 11 263 0.0 3.2 0.00 0.00 0.00 73 1010.1
20260504110503 13 35 0.0 1.6 0.00 0.00 0.00 62 1010.1
20260504100503 13 0 0.0 1.6 0.00 0.00 0.00 62 1010.0